Stündliche Wetter Abbottabad

Heute, 23 Juni, Mittwoch

Zeit Temperatur Niederschläge Wind Luftdruck Luftfeuchtigkeit
00:00 +22°C° 0 mm 3 m/S 652 mmHg 41%
01:00 +22°C° 0 mm 3 m/S 652 mmHg 42%
02:00 +22°C° 0 mm 3 m/S 652 mmHg 42%
03:00 +21°C° 0 mm 3 m/S 652 mmHg 42%
04:00 +21°C° 0 mm 3 m/S 652 mmHg 42%
05:00 +21°C° 0 mm 3 m/S 652 mmHg 41%
06:00 +24°C° 0 mm 3 m/S 652 mmHg 37%
07:00 +27°C° 0 mm 2 m/S 653 mmHg 32%
08:00 +30°C° 0 mm 2 m/S 654 mmHg 27%
09:00 +31°C° 0 mm 2 m/S 654 mmHg 24%
10:00 +33°C° 0 mm 1 m/S 655 mmHg 21%
11:00 +35°C° 0 mm 1 m/S 655 mmHg 17%
12:00 +37°C° 0 mm 2 m/S 655 mmHg 16%
13:00 +37°C° 0 mm 2 m/S 654 mmHg 16%
14:00 +37°C° 0 mm 3 m/S 654 mmHg 15%
15:00 +37°C° 0 mm 3 m/S 654 mmHg 14%
16:00 +37°C° 0 mm 3 m/S 653 mmHg 14%
17:00 +37°C° 0 mm 3 m/S 653 mmHg 13%
18:00 +35°C° 0 mm 2 m/S 653 mmHg 15%
19:00 +31°C° 0 mm 2 m/S 652 mmHg 17%
20:00 +29°C° 0 mm 1 m/S 652 mmHg 19%
21:00 +28°C° 0 mm 2 m/S 652 mmHg 22%
22:00 +27°C° 0 mm 2 m/S 652 mmHg 25%
23:00 +26°C° 0 mm 3 m/S 653 mmHg 28%

Morgen, 24 Juni, Donnerstag

Zeit Temperatur Niederschläge Wind Luftdruck Luftfeuchtigkeit
00:00 +25°C° 0 mm 3 m/S 652 mmHg 33%
01:00 +23°C° 0 mm 4 m/S 652 mmHg 39%
02:00 +22°C° 0 mm 4 m/S 652 mmHg 44%
03:00 +21°C° 0 mm 4 m/S 651 mmHg 44%
04:00 +21°C° 0 mm 4 m/S 651 mmHg 43%
05:00 +21°C° 0 mm 4 m/S 651 mmHg 43%
06:00 +25°C° 0 mm 3 m/S 652 mmHg 38%
07:00 +27°C° 0 mm 3 m/S 653 mmHg 32%
08:00 +30°C° 0 mm 2 m/S 653 mmHg 27%
09:00 +32°C° 0 mm 2 m/S 654 mmHg 23%
10:00 +34°C° 0 mm 1 m/S 654 mmHg 19%
11:00 +37°C° 0 mm 1 m/S 654 mmHg 15%
12:00 +38°C° 0 mm 2 m/S 654 mmHg 14%
13:00 +39°C° 0 mm 3 m/S 654 mmHg 12%
14:00 +40°C° 0 mm 4 m/S 653 mmHg 11%
15:00 +38°C° 0 mm 4 m/S 653 mmHg 13%
16:00 +38°C° 0 mm 3 m/S 652 mmHg 14%
17:00 +37°C° 0 mm 3 m/S 652 mmHg 15%
18:00 +34°C° 0 mm 3 m/S 652 mmHg 20%
19:00 +31°C° 0 mm 3 m/S 651 mmHg 25%
20:00 +28°C° 0 mm 3 m/S 651 mmHg 29%
21:00 +27°C° 0 mm 3 m/S 651 mmHg 32%
22:00 +26°C° 0 mm 3 m/S 651 mmHg 34%
23:00 +25°C° 0 mm 3 m/S 651 mmHg 37%

übermorgen, 25 Juni, Freitag

Zeit Temperatur Niederschläge Wind Luftdruck Luftfeuchtigkeit
00:00 +25°C° 0 mm 3 m/S 651 mmHg 37%
01:00 +24°C° 0 mm 3 m/S 651 mmHg 37%
02:00 +24°C° 0 mm 3 m/S 650 mmHg 37%
03:00 +22°C° 0.1 mm 3 m/S 650 mmHg 39%
04:00 +22°C° 0.1 mm 3 m/S 650 mmHg 41%
05:00 +21°C° 0.1 mm 3 m/S 650 mmHg 43%
06:00 +25°C° 0.1 mm 3 m/S 651 mmHg 38%
07:00 +28°C° 0.1 mm 2 m/S 651 mmHg 33%
08:00 +30°C° 0.1 mm 2 m/S 652 mmHg 28%
09:00 +32°C° 0 mm 2 m/S 652 mmHg 25%
10:00 +35°C° 0 mm 2 m/S 652 mmHg 22%
11:00 +37°C° 0 mm 2 m/S 653 mmHg 18%
12:00 +37°C° 0 mm 3 m/S 652 mmHg 17%
13:00 +38°C° 0 mm 3 m/S 652 mmHg 16%
14:00 +40°C° 0 mm 4 m/S 652 mmHg 15%
15:00 +38°C° 0 mm 4 m/S 651 mmHg 15%
16:00 +38°C° 0 mm 4 m/S 651 mmHg 16%
17:00 +38°C° 0 mm 4 m/S 650 mmHg 16%
18:00 +35°C° 0 mm 3 m/S 650 mmHg 21%
19:00 +32°C° 0 mm 2 m/S 650 mmHg 25%
20:00 +29°C° 0 mm 2 m/S 649 mmHg 30%
21:00 +27°C° 0.6 mm 3 m/S 650 mmHg 42%
22:00 +23°C° 0.6 mm 4 m/S 650 mmHg 55%
23:00 +21°C° 0.6 mm 4 m/S 651 mmHg 67%

26 Juni, Samstag

Zeit Temperatur Niederschläge Wind Luftdruck Luftfeuchtigkeit
00:00 +20°C° 0.2 mm 4 m/S 651 mmHg 67%
01:00 +20°C° 0.2 mm 3 m/S 650 mmHg 67%
02:00 +20°C° 0.2 mm 3 m/S 650 mmHg 67%
03:00 +20°C° 0.3 mm 3 m/S 651 mmHg 66%
04:00 +20°C° 0.3 mm 3 m/S 651 mmHg 65%
05:00 +20°C° 0.3 mm 3 m/S 651 mmHg 64%
06:00 +23°C° 0.1 mm 2 m/S 652 mmHg 56%
07:00 +26°C° 0.1 mm 2 m/S 653 mmHg 48%
08:00 +28°C° 0.1 mm 1 m/S 653 mmHg 40%
09:00 +30°C° 0 mm 1 m/S 654 mmHg 36%
10:00 +31°C° 0 mm 1 m/S 654 mmHg 32%
11:00 +33°C° 0 mm 1 m/S 654 mmHg 28%
12:00 +35°C° 0 mm 2 m/S 654 mmHg 26%
13:00 +36°C° 0 mm 2 m/S 654 mmHg 24%
14:00 +37°C° 0 mm 3 m/S 653 mmHg 23%
15:00 +37°C° 0 mm 3 m/S 653 mmHg 23%
16:00 +36°C° 0 mm 3 m/S 653 mmHg 22%
17:00 +36°C° 0 mm 3 m/S 652 mmHg 22%
18:00 +34°C° 0 mm 2 m/S 652 mmHg 27%
19:00 +31°C° 0 mm 1 m/S 652 mmHg 31%
20:00 +27°C° 0 mm 0 m/S 652 mmHg 35%
21:00 +27°C° 0.2 mm 1 m/S 652 mmHg 42%
22:00 +26°C° 0.2 mm 1 m/S 653 mmHg 49%
23:00 +24°C° 0.2 mm 1 m/S 653 mmHg 56%

27 Juni, Sonntag

Zeit Temperatur Niederschläge Wind Luftdruck Luftfeuchtigkeit
00:00 +24°C° 0.1 mm 2 m/S 653 mmHg 57%
01:00 +24°C° 0.1 mm 2 m/S 653 mmHg 59%
02:00 +24°C° 0.1 mm 3 m/S 652 mmHg 60%
03:00 +22°C° 0 mm 3 m/S 652 mmHg 59%
04:00 +22°C° 0 mm 3 m/S 653 mmHg 58%
05:00 +23°C° 0 mm 2 m/S 653 mmHg 57%
06:00 +25°C° 0 mm 2 m/S 653 mmHg 50%
07:00 +27°C° 0 mm 2 m/S 654 mmHg 43%
08:00 +30°C° 0 mm 1 m/S 655 mmHg 36%
09:00 +32°C° 0 mm 1 m/S 655 mmHg 32%
10:00 +34°C° 0 mm 2 m/S 655 mmHg 27%
11:00 +36°C° 0 mm 2 m/S 656 mmHg 23%
12:00 +37°C° 0 mm 3 m/S 655 mmHg 22%
13:00 +38°C° 0 mm 3 m/S 655 mmHg 21%
14:00 +38°C° 0 mm 3 m/S 655 mmHg 19%
15:00 +38°C° 0 mm 3 m/S 654 mmHg 19%
16:00 +38°C° 0 mm 3 m/S 654 mmHg 19%
17:00 +38°C° 0 mm 3 m/S 654 mmHg 19%
18:00 +35°C° 0 mm 2 m/S 654 mmHg 23%
19:00 +32°C° 0 mm 2 m/S 653 mmHg 26%
20:00 +30°C° 0 mm 1 m/S 653 mmHg 30%
21:00 +29°C° 0 mm 1 m/S 653 mmHg 31%
22:00 +29°C° 0 mm 2 m/S 653 mmHg 32%
23:00 +28°C° 0 mm 2 m/S 653 mmHg 32%

28 Juni, Montag

Zeit Temperatur Niederschläge Wind Luftdruck Luftfeuchtigkeit
00:00 +28°C° 0 mm 2 m/S 653 mmHg 34%
01:00 +27°C° 0 mm 2 m/S 653 mmHg 35%
02:00 +27°C° 0 mm 2 m/S 652 mmHg 36%
03:00 +26°C° 0 mm 2 m/S 652 mmHg 37%
04:00 +26°C° 0 mm 3 m/S 652 mmHg 38%
05:00 +26°C° 0 mm 3 m/S 652 mmHg 39%
06:00 +28°C° 0 mm 2 m/S 653 mmHg 35%
07:00 +30°C° 0 mm 2 m/S 653 mmHg 31%
08:00 +33°C° 0 mm 1 m/S 654 mmHg 27%
09:00 +35°C° 0 mm 2 m/S 654 mmHg 24%
10:00 +37°C° 0 mm 2 m/S 654 mmHg 21%
11:00 +39°C° 0 mm 2 m/S 655 mmHg 18%
12:00 +39°C° 0 mm 3 m/S 654 mmHg 17%
13:00 +40°C° 0 mm 3 m/S 654 mmHg 16%
14:00 +40°C° 0 mm 3 m/S 653 mmHg 15%
15:00 +40°C° 0 mm 3 m/S 653 mmHg 15%
16:00 +40°C° 0 mm 3 m/S 653 mmHg 15%
17:00 +39°C° 0 mm 3 m/S 653 mmHg 15%
18:00 +37°C° 0 mm 2 m/S 652 mmHg 17%
19:00 +35°C° 0 mm 2 m/S 652 mmHg 19%
20:00 +32°C° 0 mm 1 m/S 652 mmHg 22%
21:00 +31°C° 0 mm 1 m/S 652 mmHg 23%
22:00 +30°C° 0 mm 2 m/S 652 mmHg 23%
23:00 +30°C° 0 mm 2 m/S 652 mmHg 24%
Mehr zeigen

Wir brauchen deine Erlaubnis

Meteoprog und unser Service Anbieter werden persönliche Daten aufbewahren, so wie Cookies, Geräte Bezeichnung oder ähnliche Technologien von deinem Gerät und Prozess, so wie Persönliche Daten Inhalte und Werbungen, genauso wie social Media und den Verkehr zu analysieren.

  • Aufbewahrung und/oder Zugang zu deiner Geräte Informationen.

    Cookies, Geräte Bezeichnung oder andere Informationen, können aufbewahrt oder Zugang zu deinem Gerät erhalten, für den Grund, der oben angegeben wird.

  • Personalisierte Werbung und Inhalte, Messungen, Einblick in das Publikum und Produkt Entwicklung.

    Werbungen und Inhalte können personalisiert werden, basierend auf ein Profil. Mehr Daten können besser personalisierte Werbungen und Inhalte hinzufügen. Werbung und Inhalte können gezeigt und gemessen werden. Einblicke über das Publikum, welche die Werbung gesehen haben und den Inhalt, können abgeleitet werden. So wie Daten können genutzt werden, um es zu verbessern oder die Benutzer Erfahrung zu verbessern das System und die Software.

Wenn du “Ich stimme zu” klickst, erlaubst du uns, die Cookies zu benutzen die Geräte Bezeichnung, den Web oder ähnliche Technologien zu benutzen. Deine Settings, können in deinem Gerät bei deinem Browser geändert werden.

Für den bestimmten Zweck, berechtigten Interessen beruhen darauf, mehr als auf den Inhalt. Du kannst mehr darüber in unseren Privaten und Cookie Politik lesen.